Home > Products > State Listing > Kentucky Data
Latest:
 RWRKY |
  [top]

000
ASUS43 KLMK 290510
RWRKY
KENTUCKY REGIONAL WEATHER ROUNDUP
NATIONAL WEATHER SERVICE LOUISVILLE KY
100 AM EDT SUN MAY 29 2016

NOTE "FAIR" INDICATES FEW OR NO CLOUDS BELOW 12,000 FEET
WITH NO SIGNIFICANT WEATHER AND/OR OBSTRUCTIONS TO VISIBILITY.

KYZ001>023-026-027-061>063-070>075-290600-
WESTERN AND SOUTH CENTRAL KENTUCKY

CITY           SKY/WX    TMP DP  RH WIND       PRES   REMARKS
PADUCAH        CLEAR     72  63  73 S5        30.04S
HENDERSON      PTCLDY    72  64  78 S6        30.04S
OWENSBORO      PTCLDY    71  68  90 S3        30.07S
HOPKINSVILLE   NOT AVBL
BOWLING GREEN  CLOUDY    69  66  90 CALM      30.10R
GLASGOW        CLOUDY    68  64  87 CALM      30.11R
$$

KYZ024-025-028>034-038-045-046-053-290600-
NORTH CENTRAL KENTUCKY

CITY           SKY/WX    TMP DP  RH WIND       PRES   REMARKS
LOUISVILLE/SDF MOCLDY    72  64  76 SE5       30.08R
LOUISVILLE/LOU MOCLDY    73  63  70 CALM      30.09R
FORT KNOX      CLOUDY    69  65  88 CALM      30.08R
$$

KYZ035>037-039>044-047>052-055>060-089>105-290600-
NORTHEAST KENTUCKY

CITY           SKY/WX    TMP DP  RH WIND       PRES   REMARKS
LEXINGTON      PTCLDY    67  61  81 SE5       30.12R
COVINGTON      MOCLDY    67  62  84 S6        30.09S
FRANKFORT      MOCLDY    67  62  84 CALM      30.10R
$$

KYZ054-064>069-076>088-106>120-290600-
SOUTHEAST KENTUCKY

CITY           SKY/WX    TMP DP  RH WIND       PRES   REMARKS
JACKSON        PTCLDY    72  63  73 CALM      30.13S
LONDON         MOCLDY    70  63  78 NW3       30.14R
SOMERSET       PTCLDY    64  64 100 CALM      30.15R
MIDDLESBORO    PTCLDY    65  64  96 CALM      30.15R
MONTICELLO     PTCLDY    66  65  96 MISG      30.15R
$$






000
ASUS43 KLMK 290502
RWRKY
KENTUCKY REGIONAL WEATHER ROUNDUP
NATIONAL WEATHER SERVICE LOUISVILLE KY
100 AM EDT SUN MAY 29 2016

NOTE "FAIR" INDICATES FEW OR NO CLOUDS BELOW 12,000 FEET
WITH NO SIGNIFICANT WEATHER AND/OR OBSTRUCTIONS TO VISIBILITY.

KYZ001>023-026-027-061>063-070>075-290600-
WESTERN AND SOUTH CENTRAL KENTUCKY

CITY           SKY/WX    TMP DP  RH WIND       PRES   REMARKS
PADUCAH        CLEAR     72  63  73 S5        30.04S
HENDERSON      PTCLDY    72  64  78 S6        30.04S
OWENSBORO      PTCLDY    71  68  90 S3        30.07S
HOPKINSVILLE   NOT AVBL
BOWLING GREEN  CLOUDY    69  66  90 CALM      30.10R
GLASGOW        NOT AVBL
$$

KYZ024-025-028>034-038-045-046-053-290600-
NORTH CENTRAL KENTUCKY

CITY           SKY/WX    TMP DP  RH WIND       PRES   REMARKS
LOUISVILLE/SDF MOCLDY    72  64  76 SE5       30.08R
LOUISVILLE/LOU MOCLDY    73  63  70 CALM      30.09R
FORT KNOX      NOT AVBL
$$

KYZ035>037-039>044-047>052-055>060-089>105-290600-
NORTHEAST KENTUCKY

CITY           SKY/WX    TMP DP  RH WIND       PRES   REMARKS
LEXINGTON      PTCLDY    67  61  81 SE5       30.12R
COVINGTON      MOCLDY    67  62  84 S6        30.09S
FRANKFORT      MOCLDY    67  62  84 CALM      30.10R
$$

KYZ054-064>069-076>088-106>120-290600-
SOUTHEAST KENTUCKY

CITY           SKY/WX    TMP DP  RH WIND       PRES   REMARKS
JACKSON        PTCLDY    72  63  73 CALM      30.13S
LONDON         MOCLDY    70  63  78 NW3       30.14R
SOMERSET       NOT AVBL
MIDDLESBORO    PTCLDY    65  64  96 CALM      30.15R
MONTICELLO     PTCLDY    66  65  96 MISG      30.15R
$$






000
ASUS43 KLMK 290102
RWRKY
KENTUCKY REGIONAL WEATHER ROUNDUP
NATIONAL WEATHER SERVICE LOUISVILLE KY
900 PM EDT SAT MAY 28 2016

NOTE "FAIR" INDICATES FEW OR NO CLOUDS BELOW 12,000 FEET
WITH NO SIGNIFICANT WEATHER AND/OR OBSTRUCTIONS TO VISIBILITY.

KYZ001>023-026-027-061>063-070>075-290200-
WESTERN AND SOUTH CENTRAL KENTUCKY

CITY           SKY/WX    TMP DP  RH WIND       PRES   REMARKS
PADUCAH        CLOUDY    78  66  66 S5        30.01R
HENDERSON      PTCLDY    77  64  65 S6        30.02R
OWENSBORO      MOCLDY    77  69  76 S7        30.05S
HOPKINSVILLE   NOT AVBL
BOWLING GREEN  CLOUDY    76  65  68 S5        30.08R
GLASGOW        NOT AVBL
$$

KYZ024-025-028>034-038-045-046-053-290200-
NORTH CENTRAL KENTUCKY

CITY           SKY/WX    TMP DP  RH WIND       PRES   REMARKS
LOUISVILLE/SDF CLOUDY    75  63  66 SE9       30.07S
LOUISVILLE/LOU CLOUDY    76  62  62 S5        30.08R
FORT KNOX      CLOUDY    71  67  85 SE5       30.07R
$$

KYZ035>037-039>044-047>052-055>060-089>105-290200-
NORTHEAST KENTUCKY

CITY           SKY/WX    TMP DP  RH WIND       PRES   REMARKS
LEXINGTON      PTCLDY    74  60  61 W5        30.11R
COVINGTON      MOCLDY    76  62  62 SW6       30.10R
FRANKFORT      MOCLDY    75  62  64 S3        30.09R
$$

KYZ054-064>069-076>088-106>120-290200-
SOUTHEAST KENTUCKY

CITY           SKY/WX    TMP DP  RH WIND       PRES   REMARKS
JACKSON        CLEAR     76  62  62 NW3       30.13S
LONDON         PTCLDY    78  62  57 CALM      30.12R
SOMERSET       NOT AVBL
MIDDLESBORO    PTCLDY    73  65  75 W3        30.12S
MONTICELLO     PTCLDY    72  68  87 NE12      30.13R
$$






000
ASUS43 KLMK 282302
RWRKY
KENTUCKY REGIONAL WEATHER ROUNDUP
NATIONAL WEATHER SERVICE LOUISVILLE KY
700 PM EDT SAT MAY 28 2016

NOTE "FAIR" INDICATES FEW OR NO CLOUDS BELOW 12,000 FEET
WITH NO SIGNIFICANT WEATHER AND/OR OBSTRUCTIONS TO VISIBILITY.

KYZ001>023-026-027-061>063-070>075-290000-
WESTERN AND SOUTH CENTRAL KENTUCKY

CITY           SKY/WX    TMP DP  RH WIND       PRES   REMARKS
PADUCAH        MOSUNNY   81  68  64 VRB6      30.00S
HENDERSON      MOSUNNY   81  64  57 S13       30.01S
OWENSBORO      CLOUDY    82  69  64 S13       30.04F
HOPKINSVILLE   NOT AVBL
BOWLING GREEN  CLOUDY    78  66  66 S8        30.06F
GLASGOW        NOT AVBL
$$

KYZ024-025-028>034-038-045-046-053-290000-
NORTH CENTRAL KENTUCKY

CITY           SKY/WX    TMP DP  RH WIND       PRES   REMARKS
LOUISVILLE/SDF PTSUNNY   76  65  68 S5        30.06S
LOUISVILLE/LOU CLOUDY    77  63  61 SW7       30.07S
FORT KNOX      CLOUDY    72  66  83 S7        30.06F
$$

KYZ035>037-039>044-047>052-055>060-089>105-290000-
NORTHEAST KENTUCKY

CITY           SKY/WX    TMP DP  RH WIND       PRES   REMARKS
LEXINGTON      PTSUNNY   80  60  50 W8G18     30.09S
COVINGTON      PTSUNNY   80  62  54 S8        30.07S
FRANKFORT      CLOUDY    78  62  57 SW6       30.08S
$$

KYZ054-064>069-076>088-106>120-290000-
SOUTHEAST KENTUCKY

CITY           SKY/WX    TMP DP  RH WIND       PRES   REMARKS
JACKSON        MOSUNNY   80  63  55 CALM      30.12S
LONDON         CLOUDY    83  60  45 SE5       30.10F
SOMERSET       NOT AVBL
MIDDLESBORO    SUNNY     82  62  50 S3        30.12R
MONTICELLO     PTCLDY    80  66  62 W8G17     30.11S
$$






000
ASUS43 KLMK 282110
RWRKY
KENTUCKY REGIONAL WEATHER ROUNDUP
NATIONAL WEATHER SERVICE LOUISVILLE KY
500 PM EDT SAT MAY 28 2016

NOTE "FAIR" INDICATES FEW OR NO CLOUDS BELOW 12,000 FEET
WITH NO SIGNIFICANT WEATHER AND/OR OBSTRUCTIONS TO VISIBILITY.

KYZ001>023-026-027-061>063-070>075-282200-
WESTERN AND SOUTH CENTRAL KENTUCKY

CITY           SKY/WX    TMP DP  RH WIND       PRES   REMARKS
PADUCAH        CLOUDY    83  65  54 SW7       30.01S
HENDERSON      CLOUDY    81  64  57 S15       30.01S
OWENSBORO      CLOUDY    80  67  64 S13       30.04S
HOPKINSVILLE   PTSUNNY   81  66  60 S8        30.05R
BOWLING GREEN  CLOUDY    79  68  69 S10       30.08F
GLASGOW        CLOUDY    74  65  73 S3        30.11R
$$

KYZ024-025-028>034-038-045-046-053-282200-
NORTH CENTRAL KENTUCKY

CITY           SKY/WX    TMP DP  RH WIND       PRES   REMARKS
LOUISVILLE/SDF PTSUNNY   81  66  60 S14       30.06S
LOUISVILLE/LOU CLOUDY    80  67  64 S9        30.07S
FORT KNOX      PTSUNNY   77  68  73 S8        30.06S
$$

KYZ035>037-039>044-047>052-055>060-089>105-282200-
NORTHEAST KENTUCKY

CITY           SKY/WX    TMP DP  RH WIND       PRES   REMARKS
LEXINGTON      SUNNY     84  60  44 SW12      30.10S
COVINGTON      PTSUNNY   83  64  52 S9        30.07F
FRANKFORT      MOSUNNY   85  59  41 SW16      30.07F
$$

KYZ054-064>069-076>088-106>120-282200-
SOUTHEAST KENTUCKY

CITY           SKY/WX    TMP DP  RH WIND       PRES   REMARKS
JACKSON        SUNNY     83  65  54 VRB3      30.12F
LONDON         SUNNY     82  61  48 CALM      30.11F
SOMERSET       MOSUNNY   82  61  47 SW6       30.11S
MIDDLESBORO    SUNNY     84  60  44 SW3       30.12S
MONTICELLO     PTCLDY    83  66  56 E7        30.11F
$$






000
ASUS43 KLMK 282102
RWRKY
KENTUCKY REGIONAL WEATHER ROUNDUP
NATIONAL WEATHER SERVICE LOUISVILLE KY
500 PM EDT SAT MAY 28 2016

NOTE "FAIR" INDICATES FEW OR NO CLOUDS BELOW 12,000 FEET
WITH NO SIGNIFICANT WEATHER AND/OR OBSTRUCTIONS TO VISIBILITY.

KYZ001>023-026-027-061>063-070>075-282200-
WESTERN AND SOUTH CENTRAL KENTUCKY

CITY           SKY/WX    TMP DP  RH WIND       PRES   REMARKS
PADUCAH        CLOUDY    83  65  54 SW7       30.01S
HENDERSON      CLOUDY    81  64  57 S15       30.01S
OWENSBORO      CLOUDY    80  67  64 S13       30.04S
HOPKINSVILLE   NOT AVBL
BOWLING GREEN  CLOUDY    79  68  69 S10       30.08F
GLASGOW        NOT AVBL
$$

KYZ024-025-028>034-038-045-046-053-282200-
NORTH CENTRAL KENTUCKY

CITY           SKY/WX    TMP DP  RH WIND       PRES   REMARKS
LOUISVILLE/SDF PTSUNNY   81  66  60 S14       30.06S
LOUISVILLE/LOU CLOUDY    80  67  64 S9        30.07S
FORT KNOX      PTSUNNY   77  68  73 S8        30.06S
$$

KYZ035>037-039>044-047>052-055>060-089>105-282200-
NORTHEAST KENTUCKY

CITY           SKY/WX    TMP DP  RH WIND       PRES   REMARKS
LEXINGTON      SUNNY     84  60  44 SW12      30.10S
COVINGTON      PTSUNNY   83  64  52 S9        30.07F
FRANKFORT      MOSUNNY   85  59  41 SW16      30.07F
$$

KYZ054-064>069-076>088-106>120-282200-
SOUTHEAST KENTUCKY

CITY           SKY/WX    TMP DP  RH WIND       PRES   REMARKS
JACKSON        SUNNY     83  65  54 VRB3      30.12F
LONDON         SUNNY     82  61  48 CALM      30.11F
SOMERSET       NOT AVBL
MIDDLESBORO    SUNNY     84  60  44 SW3       30.12S
MONTICELLO     PTCLDY    83  66  56 E7        30.11F
$$






000
ASUS43 KLMK 281802
RWRKY
KENTUCKY REGIONAL WEATHER ROUNDUP
NATIONAL WEATHER SERVICE LOUISVILLE KY
200 PM EDT SAT MAY 28 2016

NOTE "FAIR" INDICATES FEW OR NO CLOUDS BELOW 12,000 FEET
WITH NO SIGNIFICANT WEATHER AND/OR OBSTRUCTIONS TO VISIBILITY.

KYZ001>023-026-027-061>063-070>075-281900-
WESTERN AND SOUTH CENTRAL KENTUCKY

CITY           SKY/WX    TMP DP  RH WIND       PRES   REMARKS
PADUCAH        CLOUDY    80  66  62 SW10      30.01F
HENDERSON      CLOUDY    81  63  54 S13G21    30.01S
OWENSBORO      CLOUDY    80  68  67 S12       30.05S
HOPKINSVILLE   NOT AVBL
BOWLING GREEN  CLOUDY    79  67  66 S8        30.08F
GLASGOW        NOT AVBL
$$

KYZ024-025-028>034-038-045-046-053-281900-
NORTH CENTRAL KENTUCKY

CITY           SKY/WX    TMP DP  RH WIND       PRES   REMARKS
LOUISVILLE/SDF CLOUDY    83  66  56 SE8       30.06F
LOUISVILLE/LOU CLOUDY    82  66  58 VRB7      30.07F
FORT KNOX      PTSUNNY   82  67  60 S12       30.06F
$$

KYZ035>037-039>044-047>052-055>060-089>105-281900-
NORTHEAST KENTUCKY

CITY           SKY/WX    TMP DP  RH WIND       PRES   REMARKS
LEXINGTON      MOSUNNY   83  64  52 SW9G20    30.12F
COVINGTON      CLOUDY    81  67  62 S7        30.10F
FRANKFORT      MOSUNNY   83  63  50 S12       30.10F
$$

KYZ054-064>069-076>088-106>120-281900-
SOUTHEAST KENTUCKY

CITY           SKY/WX    TMP DP  RH WIND       PRES   REMARKS
JACKSON        MOSUNNY   83  65  54 VRB3      30.17F
LONDON         MOSUNNY   82  60  47 W8        30.15F
SOMERSET       NOT AVBL
MIDDLESBORO    NOT AVBL
MONTICELLO     PTCLDY    84  66  54 VRB7      30.14F
$$






    US Dept of Commerce
    National Oceanic and Atmospheric Administration
    National Weather Service
    1325 East West Highway
    Silver Spring, MD 20910
    Page Author: NWS Internet Services Team
Disclaimer
Information Quality
Credits
Glossary
Privacy Policy
Freedom of Information Act (FOIA)
About Us
Career Opportunities